Tracking 31032 objects as of 14-Jul-2025
HD Live streaming from Space Station
objects crossing your sky now

STARLINK-34322

Track STARLINK-34322 now!
10-day predictions
STARLINK-34322 is classified as:


NORAD ID: 64702
Int'l Code: 2025-142G
Perigee: 363.1 km
Apogee: 368.5 km
Inclination: 70.0 °
Period: 91.7 minutes
Semi major axis: 6736 km
RCS: Unknown
Launch date: June 28, 2025
Source: United States (US)
Launch site: AIR FORCE WESTERN TEST RANGE (AFWTR)
Your satellite tracking list
Your tracking list is empty




NASA's NSSDC Master Catalog

Two Line Element Set (TLE):
1 64702U 25142G   25194.82889960 -.00663657  00000-0 -59258-2 0  9990
2 64702  69.9996 207.8639 0003987 270.9525  89.1214 15.70082673  3581
Source of the keplerian elements: AFSPC